{"data":{"norad_id":53624,"epoch":"2026-05-25T00:47:20.584032Z","epoch_age_seconds":72124,"freshness":"FRESH","line1":"1 53624U 22104AN  26145.03287713 -.00000264  00000+0  15100-5 0  9992","line2":"2 53624  53.2136 251.1605 0001403  86.1704 273.9448 15.08840682207273","mean_motion":15.08840682,"eccentricity":0.0001403,"inclination_deg":53.2136,"raan_deg":251.1605,"arg_perigee_deg":86.1704,"mean_anomaly_deg":273.9448,"bstar":1.51e-6,"rev_number":20727,"period_min":95.437511539737,"perigee_km":538.77072603763,"apogee_km":540.71188268983,"semimajor_km":6917.8783043637,"source":"CELESTRAK","updated_at":"2026-05-25T13:38:17.479977Z"}}